STARLINK-34639

Last updated on Fri Aug 08 2025 00:02:05 GMT+0000 (Coordinated Universal Time)

1 64767U 25147N 25218.87336018 .00071068 00000+0 12726-2 0 9994 2 64767 53.1595 163.3069 0001703 100.8158 259.3043 15.49346743 5773
UTC large
Height (km)
Speed (km/s)
/
Latitude / Longitude
Inclination (degrees)
Orbital Period (minutes)
Azimuth
Elevation
Range (km)
Doppler Factor

Next 0 passes for location: London (51.5072 / 0.1276)

Sorry there are no passes over London.